EWG14PJ EDDL-EPKK

Flight info

Callsign EWG14PJ
Flight time 1h 25m
Altitude 35000
Route DODEN1T DODEN Y853 BOMBI DCT ESATI/N0463F310 DCT KOMIB/N0448F370 DCT SULUS DCT LONLI DCT ABERU L984 OKG DCT DONAD DCT BALTU DCT BEKVI DCT ETUDA DCT PADKA
Aircraft A319/M-SDE3FGHIRWY/LB1

Departure

Time 2026-05-01 11:23
Airport Düsseldorf Airport (EDDL)

Arrival

Time 2026-05-01 12:48
Airport Kraków John Paul II International Airport (EPKK)
Time Latitude Longitude Altitude Speed Heading
2026-05-01 10:56 51.28207 6.76735 118 ft 0 kts 277°
2026-05-01 11:12 51.28207 6.76739 118 ft 3 kts 277°
2026-05-01 11:13 51.28203 6.76780 116 ft 4 kts 278°
2026-05-01 11:13 51.28201 6.76823 114 ft 4 kts 253°
2026-05-01 11:13 51.28215 6.76844 115 ft 4 kts 187°
2026-05-01 11:13 51.28241 6.76848 117 ft 4 kts 185°
2026-05-01 11:14 51.28268 6.76852 118 ft 3 kts 188°
2026-05-01 11:14 51.28290 6.76858 117 ft 4 kts 200°
2026-05-01 11:14 51.28314 6.76877 113 ft 4 kts 217°
2026-05-01 11:14 51.28334 6.76906 115 ft 4 kts 230°
2026-05-01 11:15 51.28350 6.76940 114 ft 4 kts 237°
2026-05-01 11:15 51.28364 6.76976 115 ft 3 kts 232°
2026-05-01 11:15 51.28366 6.76979 115 ft 0 kts 231°
2026-05-01 11:17 51.28363 6.76974 115 ft 2 kts 233°
2026-05-01 11:17 51.28353 6.76930 115 ft 7 kts 263°
2026-05-01 11:17 51.28381 6.76858 118 ft 8 kts 318°
2026-05-01 11:18 51.28429 6.76799 117 ft 9 kts 322°
2026-05-01 11:18 51.28488 6.76783 118 ft 9 kts 26°
2026-05-01 11:18 51.28536 6.76873 118 ft 13 kts 53°
2026-05-01 11:18 51.28603 6.77013 115 ft 18 kts 53°
2026-05-01 11:19 51.28677 6.77171 117 ft 18 kts 53°
2026-05-01 11:19 51.28754 6.77330 116 ft 18 kts 52°
2026-05-01 11:19 51.28831 6.77493 118 ft 19 kts 53°
2026-05-01 11:19 51.28910 6.77658 118 ft 19 kts 52°
2026-05-01 11:20 51.28990 6.77826 118 ft 19 kts 53°
2026-05-01 11:20 51.29070 6.77996 115 ft 19 kts 54°
2026-05-01 11:20 51.29152 6.78168 117 ft 20 kts 52°
2026-05-01 11:20 51.29235 6.78342 114 ft 18 kts 54°
2026-05-01 11:21 51.29312 6.78503 118 ft 18 kts 53°
2026-05-01 11:21 51.29421 6.78570 116 ft 18 kts 355°
2026-05-01 11:21 51.29523 6.78559 119 ft 8 kts 356°
2026-05-01 11:21 51.29544 6.78513 118 ft 7 kts 232°
2026-05-01 11:22 51.29507 6.78440 118 ft 11 kts 231°
2026-05-01 11:22 51.29333 6.78080 117 ft 80 kts 232°
2026-05-01 11:22 51.28851 6.77071 118 ft 146 kts 231°
2026-05-01 11:22 51.28183 6.75584 400 ft 170 kts 234°
2026-05-01 11:23 51.27500 6.74084 1016 ft 169 kts 227°
2026-05-01 11:23 51.26798 6.72549 1623 ft 174 kts 228°
2026-05-01 11:23 51.26036 6.70923 2064 ft 190 kts 227°
2026-05-01 11:23 51.25196 6.69190 2569 ft 205 kts 228°
2026-05-01 11:24 51.24290 6.67273 2869 ft 226 kts 228°
2026-05-01 11:24 51.23280 6.65181 3084 ft 249 kts 223°
2026-05-01 11:24 51.20127 6.63717 4399 ft 245 kts 165°
2026-05-01 11:25 51.18468 6.64313 5197 ft 245 kts 163°
2026-05-01 11:25 51.15239 6.66066 6463 ft 251 kts 136°
2026-05-01 11:25 51.14250 6.68371 7039 ft 256 kts 117°
2026-05-01 11:26 51.13701 6.70039 7482 ft 258 kts 118°
2026-05-01 11:26 51.11745 6.75500 8794 ft 264 kts 120°
2026-05-01 11:26 51.10799 6.78018 9375 ft 267 kts 121°
2026-05-01 11:27 51.09835 6.80565 9952 ft 269 kts 121°
2026-05-01 11:27 51.08864 6.83135 10431 ft 275 kts 121°
2026-05-01 11:27 51.07848 6.85829 10548 ft 292 kts 121°
2026-05-01 11:27 51.06782 6.88659 10734 ft 302 kts 120°
2026-05-01 11:28 51.05729 6.91448 11653 ft 283 kts 120°
2026-05-01 11:28 51.04735 6.94075 12595 ft 275 kts 120°
2026-05-01 11:28 51.03723 6.96748 13091 ft 293 kts 120°
2026-05-01 11:29 51.01460 7.02743 13502 ft 339 kts 120°
2026-05-01 11:29 51.00213 7.06033 13872 ft 354 kts 120°
2026-05-01 11:29 50.97627 7.12816 15124 ft 363 kts 120°
2026-05-01 11:30 50.96311 7.16275 15787 ft 367 kts 120°
2026-05-01 11:30 50.95433 7.18581 16217 ft 370 kts 120°
2026-05-01 11:30 50.94095 7.22094 16869 ft 374 kts 120°
2026-05-01 11:30 50.92745 7.25631 17513 ft 377 kts 120°
2026-05-01 11:31 50.91379 7.29206 18143 ft 382 kts 120°
2026-05-01 11:31 50.89996 7.32815 18764 ft 386 kts 120°
2026-05-01 11:31 50.88594 7.36462 19326 ft 389 kts 120°
2026-05-01 11:31 50.87177 7.40143 19870 ft 393 kts 120°
2026-05-01 11:32 50.85749 7.43851 20403 ft 396 kts 120°
2026-05-01 11:32 50.84308 7.47588 20931 ft 399 kts 120°
2026-05-01 11:32 50.82857 7.51351 21434 ft 403 kts 120°
2026-05-01 11:32 50.81391 7.55150 21927 ft 406 kts 120°
2026-05-01 11:33 50.79909 7.58985 22431 ft 409 kts 120°
2026-05-01 11:33 50.78416 7.62837 22917 ft 413 kts 120°
2026-05-01 11:33 50.76907 7.66722 23382 ft 416 kts 119°
2026-05-01 11:33 50.75388 7.70630 23847 ft 419 kts 119°
2026-05-01 11:34 50.73854 7.74569 24248 ft 422 kts 119°
2026-05-01 11:34 50.72309 7.78532 24625 ft 425 kts 119°
2026-05-01 11:34 50.70750 7.82525 25022 ft 428 kts 119°
2026-05-01 11:34 50.69182 7.86535 25418 ft 430 kts 119°
2026-05-01 11:35 50.67607 7.90558 25804 ft 433 kts 119°
2026-05-01 11:35 50.66021 7.94606 26187 ft 435 kts 119°
2026-05-01 11:35 50.64423 7.98670 26569 ft 437 kts 119°
2026-05-01 11:35 50.62812 8.02755 26931 ft 440 kts 119°
2026-05-01 11:36 50.61145 8.06809 27279 ft 444 kts 124°
2026-05-01 11:36 50.59144 8.10546 27608 ft 449 kts 132°
2026-05-01 11:36 50.56831 8.13802 27935 ft 453 kts 138°
2026-05-01 11:36 50.54393 8.16969 28261 ft 456 kts 138°
2026-05-01 11:37 50.51946 8.20159 28586 ft 458 kts 137°
2026-05-01 11:37 50.49493 8.23370 28900 ft 460 kts 137°
2026-05-01 11:37 50.47027 8.26608 29217 ft 463 kts 137°
2026-05-01 11:37 50.44556 8.29846 29637 ft 462 kts 137°
2026-05-01 11:38 50.42092 8.33067 30102 ft 461 kts 137°
2026-05-01 11:38 50.39626 8.36280 30543 ft 461 kts 138°
2026-05-01 11:38 50.37148 8.39497 30935 ft 460 kts 138°
2026-05-01 11:38 50.34799 8.42546 31305 ft 460 kts 138°
2026-05-01 11:39 50.32339 8.45737 31697 ft 459 kts 138°
2026-05-01 11:39 50.29877 8.48919 32096 ft 459 kts 138°
2026-05-01 11:39 50.27414 8.52098 32499 ft 458 kts 138°
2026-05-01 11:39 50.24955 8.55269 32900 ft 457 kts 138°
2026-05-01 11:40 50.22500 8.58433 33311 ft 457 kts 138°
2026-05-01 11:40 50.20047 8.61593 33707 ft 456 kts 138°
2026-05-01 11:40 50.17594 8.64752 34101 ft 456 kts 138°
2026-05-01 11:40 50.15178 8.67853 34477 ft 455 kts 138°
2026-05-01 11:41 50.12728 8.70993 34817 ft 455 kts 138°
2026-05-01 11:41 50.10421 8.74333 35153 ft 452 kts 129°
2026-05-01 11:41 50.08516 8.78227 35327 ft 450 kts 119°
2026-05-01 11:41 50.07126 8.82559 35358 ft 447 kts 108°
2026-05-01 11:42 50.06261 8.87187 35355 ft 444 kts 98°
2026-05-01 11:42 50.05971 8.96733 35360 ft 441 kts 86°
2026-05-01 11:43 50.06125 9.06283 35363 ft 441 kts 86°
2026-05-01 11:43 50.06264 9.15841 35367 ft 442 kts 86°
2026-05-01 11:44 50.06457 9.30138 35367 ft 442 kts 87°
2026-05-01 11:44 50.06581 9.39698 35365 ft 442 kts 87°
2026-05-01 11:45 50.06703 9.49267 35366 ft 442 kts 87°
2026-05-01 11:45 50.06810 9.58873 35368 ft 442 kts 87°
2026-05-01 11:46 50.06908 9.68450 35366 ft 442 kts 87°
2026-05-01 11:46 50.07006 9.77966 35377 ft 443 kts 87°
2026-05-01 11:47 50.07092 9.87547 35376 ft 443 kts 87°
2026-05-01 11:47 50.07159 9.97147 35382 ft 443 kts 87°
2026-05-01 11:48 50.07223 10.06738 35381 ft 443 kts 88°
2026-05-01 11:48 50.07285 10.16328 35387 ft 443 kts 88°
2026-05-01 11:49 50.07341 10.25913 35386 ft 443 kts 87°
2026-05-01 11:49 50.07401 10.35500 35390 ft 443 kts 87°
2026-05-01 11:50 50.07449 10.45086 35387 ft 443 kts 88°
2026-05-01 11:50 50.07483 10.54671 35394 ft 443 kts 88°
2026-05-01 11:51 50.07506 10.64261 35396 ft 443 kts 88°
2026-05-01 11:51 50.07526 10.73849 35397 ft 443 kts 88°
2026-05-01 11:52 50.07538 10.83429 35392 ft 442 kts 88°
2026-05-01 11:52 50.07537 10.93012 35390 ft 442 kts 88°
2026-05-01 11:53 50.07525 11.02550 35395 ft 443 kts 88°
2026-05-01 11:53 50.07500 11.12197 35397 ft 443 kts 88°
2026-05-01 11:54 50.07471 11.21720 35399 ft 442 kts 88°
2026-05-01 11:54 50.07447 11.31289 35405 ft 442 kts 88°
2026-05-01 11:55 50.07412 11.40858 35403 ft 442 kts 88°
2026-05-01 11:55 50.07368 11.50418 35412 ft 441 kts 88°
2026-05-01 11:56 50.07314 11.59971 35416 ft 441 kts 88°
2026-05-01 11:56 50.07248 11.69515 35419 ft 441 kts 88°
2026-05-01 11:57 50.07189 11.79051 35422 ft 440 kts 88°
2026-05-01 11:57 50.07119 11.88619 35422 ft 440 kts 88°
2026-05-01 11:58 50.07036 11.98138 35421 ft 440 kts 88°
2026-05-01 11:59 50.06893 12.12436 35417 ft 440 kts 88°
2026-05-01 11:59 50.06780 12.21966 35412 ft 440 kts 89°
2026-05-01 12:00 50.06577 12.36183 35405 ft 439 kts 89°
2026-05-01 12:01 50.06645 12.50474 35415 ft 438 kts 84°
2026-05-01 12:01 50.07004 12.59932 35430 ft 438 kts 84°
2026-05-01 12:02 50.07338 12.69405 35436 ft 438 kts 85°
2026-05-01 12:02 50.07590 12.78846 35442 ft 439 kts 85°
2026-05-01 12:03 50.07806 12.88356 35447 ft 438 kts 85°
2026-05-01 12:03 50.08023 12.97843 35446 ft 438 kts 85°
2026-05-01 12:04 50.08262 13.07320 35449 ft 437 kts 85°
2026-05-01 12:04 50.08531 13.16779 35444 ft 437 kts 85°
2026-05-01 12:05 50.08794 13.26178 35431 ft 437 kts 85°
2026-05-01 12:05 50.09002 13.40373 35435 ft 437 kts 88°
2026-05-01 12:06 50.08891 13.49840 35430 ft 437 kts 88°
2026-05-01 12:06 50.08769 13.59308 35422 ft 437 kts 88°
2026-05-01 12:07 50.08680 13.68767 35424 ft 436 kts 88°
2026-05-01 12:07 50.08597 13.78210 35422 ft 436 kts 88°
2026-05-01 12:08 50.08524 13.86047 35418 ft 436 kts 88°
2026-05-01 12:08 50.08428 13.95483 35419 ft 436 kts 88°
2026-05-01 12:09 50.08321 14.04923 35419 ft 435 kts 88°
2026-05-01 12:09 50.08208 14.14351 35423 ft 435 kts 88°
2026-05-01 12:10 50.08025 14.28496 35422 ft 435 kts 88°
2026-05-01 12:11 50.07816 14.42630 35426 ft 435 kts 88°
2026-05-01 12:11 50.07675 14.52038 35426 ft 435 kts 88°
2026-05-01 12:12 50.07523 14.61437 35426 ft 434 kts 88°
2026-05-01 12:12 50.07361 14.70840 35427 ft 434 kts 88°
2026-05-01 12:13 50.07160 14.80237 35422 ft 434 kts 88°
2026-05-01 12:13 50.06890 14.89628 35420 ft 434 kts 89°
2026-05-01 12:14 50.06608 14.99018 35420 ft 434 kts 89°
2026-05-01 12:14 50.06337 15.08396 35411 ft 434 kts 89°
2026-05-01 12:15 50.06067 15.17768 35410 ft 433 kts 89°
2026-05-01 12:15 50.05786 15.27132 35405 ft 433 kts 89°
2026-05-01 12:16 50.05493 15.36424 35398 ft 432 kts 89°
2026-05-01 12:16 50.05197 15.45834 35394 ft 432 kts 89°
2026-05-01 12:17 50.04890 15.55167 35392 ft 432 kts 89°
2026-05-01 12:17 50.04574 15.64440 35394 ft 432 kts 89°
2026-05-01 12:18 50.04251 15.73772 35399 ft 432 kts 89°
2026-05-01 12:18 50.03925 15.83104 35395 ft 431 kts 89°
2026-05-01 12:19 50.03594 15.92420 35398 ft 431 kts 89°
2026-05-01 12:19 50.03253 16.01729 35393 ft 431 kts 89°
2026-05-01 12:20 50.02903 16.11026 35395 ft 430 kts 89°
2026-05-01 12:20 50.02547 16.20328 35389 ft 431 kts 89°
2026-05-01 12:21 50.02181 16.29618 35384 ft 430 kts 89°
2026-05-01 12:21 50.01806 16.38920 35384 ft 430 kts 89°
2026-05-01 12:22 50.01426 16.48213 35389 ft 430 kts 89°
2026-05-01 12:22 50.01056 16.57491 35384 ft 430 kts 88°
2026-05-01 12:23 50.00708 16.66770 35383 ft 429 kts 88°
2026-05-01 12:23 50.00360 16.76031 35379 ft 429 kts 88°
2026-05-01 12:24 49.99999 16.85302 35377 ft 430 kts 88°
2026-05-01 12:24 49.99628 16.94571 35377 ft 430 kts 88°
2026-05-01 12:25 49.99049 17.08464 35380 ft 429 kts 88°
2026-05-01 12:26 49.98658 17.17724 35376 ft 429 kts 88°
2026-05-01 12:26 49.98057 17.31528 35377 ft 428 kts 88°
2026-05-01 12:27 49.97440 17.45367 35378 ft 428 kts 89°
2026-05-01 12:28 49.96805 17.59216 35381 ft 428 kts 89°
2026-05-01 12:29 49.96152 17.73046 35380 ft 428 kts 89°
2026-05-01 12:29 49.95489 17.86860 35382 ft 427 kts 89°
2026-05-01 12:30 49.94812 18.00654 35382 ft 427 kts 89°
2026-05-01 12:31 49.94345 18.09844 35379 ft 427 kts 89°
2026-05-01 12:31 49.94059 18.18993 35349 ft 421 kts 82°
2026-05-01 12:31 49.94198 18.23538 34757 ft 423 kts 82°
2026-05-01 12:32 49.94347 18.28099 34049 ft 422 kts 81°
2026-05-01 12:32 49.94653 18.37169 32556 ft 420 kts 82°
2026-05-01 12:32 49.94803 18.41709 31828 ft 421 kts 82°
2026-05-01 12:33 49.94949 18.46259 31122 ft 422 kts 82°
2026-05-01 12:33 49.95093 18.50809 30441 ft 422 kts 82°
2026-05-01 12:33 49.95234 18.55373 29649 ft 423 kts 82°
2026-05-01 12:33 49.95373 18.59939 28865 ft 425 kts 82°
2026-05-01 12:34 49.95511 18.64533 28102 ft 426 kts 83°
2026-05-01 12:34 49.95646 18.69136 27360 ft 428 kts 83°
2026-05-01 12:34 49.95779 18.73759 26636 ft 429 kts 83°
2026-05-01 12:34 49.95910 18.78402 25931 ft 431 kts 83°
2026-05-01 12:35 49.96038 18.83027 25248 ft 427 kts 83°
2026-05-01 12:35 49.96164 18.87621 24575 ft 423 kts 83°
2026-05-01 12:35 49.96288 18.92170 23921 ft 419 kts 83°
2026-05-01 12:35 49.96408 18.96673 23148 ft 415 kts 83°
2026-05-01 12:36 49.96526 19.01127 22392 ft 411 kts 83°
2026-05-01 12:36 49.96641 19.05484 21663 ft 407 kts 83°
2026-05-01 12:36 49.96756 19.09861 20946 ft 404 kts 83°
2026-05-01 12:36 49.96870 19.14257 20235 ft 400 kts 83°
2026-05-01 12:37 49.96976 19.18551 19550 ft 397 kts 83°
2026-05-01 12:37 49.97080 19.22773 18884 ft 394 kts 83°
2026-05-01 12:37 49.97185 19.27013 18165 ft 392 kts 83°
2026-05-01 12:38 49.97309 19.31822 17311 ft 388 kts 83°
2026-05-01 12:38 49.97409 19.35996 16581 ft 385 kts 83°
2026-05-01 12:38 49.97500 19.40086 15855 ft 373 kts 83°
2026-05-01 12:38 49.97586 19.44042 15208 ft 359 kts 83°
2026-05-01 12:39 49.97664 19.47848 14605 ft 346 kts 83°
2026-05-01 12:39 49.97739 19.51532 13992 ft 334 kts 83°
2026-05-01 12:39 49.97816 19.55082 13327 ft 324 kts 83°
2026-05-01 12:39 49.97892 19.58536 12669 ft 316 kts 83°
2026-05-01 12:40 49.97966 19.61910 12029 ft 308 kts 83°
2026-05-01 12:40 49.98037 19.65203 11392 ft 302 kts 83°
2026-05-01 12:40 49.98106 19.68432 10779 ft 297 kts 83°
2026-05-01 12:40 49.98172 19.71622 10167 ft 292 kts 84°
2026-05-01 12:41 49.98331 19.74731 9500 ft 285 kts 76°
2026-05-01 12:41 49.98731 19.77724 8844 ft 280 kts 74°
2026-05-01 12:41 49.99134 19.80671 8201 ft 277 kts 74°
2026-05-01 12:41 49.99532 19.83597 7564 ft 275 kts 75°
2026-05-01 12:42 49.99923 19.86492 6942 ft 273 kts 75°
2026-05-01 12:42 50.00311 19.89374 6267 ft 272 kts 75°
2026-05-01 12:42 50.00696 19.92237 5695 ft 268 kts 75°
2026-05-01 12:42 50.01072 19.95040 5188 ft 262 kts 76°
2026-05-01 12:43 50.01443 19.97790 4667 ft 257 kts 76°
2026-05-01 12:43 50.01805 20.00481 4157 ft 253 kts 75°
2026-05-01 12:43 50.02293 20.03059 3654 ft 245 kts 57°
2026-05-01 12:43 50.03435 20.04884 3268 ft 232 kts 26°
2026-05-01 12:44 50.04943 20.05407 3004 ft 216 kts 354°
2026-05-01 12:44 50.06355 20.05044 3007 ft 199 kts 347°
2026-05-01 12:44 50.08860 20.03700 3007 ft 189 kts 325°
2026-05-01 12:45 50.10346 20.00368 3002 ft 192 kts 288°
2026-05-01 12:45 50.10480 19.99000 3007 ft 193 kts 275°
2026-05-01 12:45 50.10228 19.96231 2893 ft 196 kts 261°
2026-05-01 12:46 50.09939 19.94155 2662 ft 195 kts 260°
2026-05-01 12:46 50.09653 19.92091 2413 ft 194 kts 261°
2026-05-01 12:46 50.09372 19.90055 2151 ft 191 kts 261°
2026-05-01 12:46 50.09187 19.88711 1979 ft 185 kts 261°
2026-05-01 12:47 50.08924 19.86808 1717 ft 174 kts 259°
2026-05-01 12:47 50.08687 19.85097 1482 ft 149 kts 261°
2026-05-01 12:47 50.08481 19.83605 1285 ft 138 kts 261°
2026-05-01 12:47 50.08286 19.82170 1126 ft 135 kts 261°
2026-05-01 12:48 50.08090 19.80755 936 ft 133 kts 261°
2026-05-01 12:48 50.07894 19.79359 792 ft 124 kts 260°
2026-05-01 12:48 50.07764 19.78400 792 ft 48 kts 258°
2026-05-01 12:48 50.07713 19.78141 790 ft 21 kts 221°
2026-05-01 12:49 50.07616 19.78108 790 ft 9 kts 184°
2026-05-01 12:49 50.07551 19.78104 790 ft 10 kts 180°
2026-05-01 12:49 50.07490 19.78105 790 ft 8 kts 170°
2026-05-01 12:49 50.07477 19.78175 790 ft 8 kts 82°
2026-05-01 12:50 50.07492 19.78286 790 ft 14 kts 78°
2026-05-01 12:50 50.07517 19.78468 790 ft 19 kts 78°
2026-05-01 12:50 50.07545 19.78671 791 ft 20 kts 78°
2026-05-01 12:50 50.07575 19.78882 791 ft 20 kts 78°
2026-05-01 12:51 50.07606 19.79103 791 ft 21 kts 78°
2026-05-01 12:51 50.07637 19.79331 791 ft 22 kts 77°
2026-05-01 12:51 50.07669 19.79561 790 ft 10 kts 77°
2026-05-01 12:52 50.07687 19.79685 790 ft 13 kts 77°
2026-05-01 12:52 50.07633 19.79892 791 ft 14 kts 166°
2026-05-01 12:52 50.07616 19.80009 791 ft 11 kts 78°
2026-05-01 12:53 50.07608 19.80152 791 ft 4 kts 164°
2026-05-01 12:53 50.07602 19.80154 791 ft 1 kts 164°
2026-05-01 12:53 50.07581 19.80163 791 ft 6 kts 163°
2026-05-01 12:54 50.07543 19.80192 791 ft 7 kts 154°
2026-05-01 12:54 50.07494 19.80212 791 ft 2 kts 168°
2026-05-01 12:54 50.07488 19.80214 791 ft 0 kts 168°